[[{"header":{"parameterUnit":"m.s-1","parameterCategory":1,"la1":30.2991,"la2":30.254,"lo1":-89.0895,"lo2":-89.0444,"dy":0.0017,"dx":0.0017,"nx":28,"ny":28,"refTime":"2024-02-15T09:00:00:Z","depth":0,"parameterNumber":2,"parameterNumberName":"U-component_of_WINDS"},"data":[0,0,0,0,0,0,0,0,0,0,0,0,0,0,0,0,0,0,0,0,0,0,0,0,0,0,0,0,0,0,0,0,0,0,0,0,0,0,0,0,0,0,0,0,0,0,0,0,0,0,0,0,0,0,0,0,0,0,-1.4221,-1.4221,0,-1.4211,-1.4211,-1.4211,-1.415,-1.4149,-1.4147,-1.4146,-1.4136,-1.4137,-1.4138,0,0,0,0,0,0,0,0,0,0,0,0,0,-1.4191,-1.4192,-1.4221,-1.4221,-1.4221,-1.4211,-1.4211,-1.4211,-1.415,-1.4148,-1.4147,-1.4145,-1.4136,-1.4137,-1.4138,0,0,0,0,0,0,0,0,0,0,0,0,0,-1.4195,-1.4192,-1.4221,-1.419,-1.4187,-1.4211,-1.4211,-1.4211,-1.4151,-1.4148,-1.4146,-1.4144,-1.4135,-1.4137,-1.4139,-1.4193,0,0,-1.4144,-1.4144,0,0,0,0,0,0,0,0,-1.4195,-1.4196,-1.4194,-1.4192,-1.4189,-1.418,-1.4197,-1.4205,-1.4151,-1.4164,-1.4146,-1.4143,-1.4152,-1.4153,-1.4155,-1.4192,-1.4192,-1.4144,-1.4145,-1.4146,-1.4146,0,0,0,0,0,0,0,-1.4195,-1.4196,-1.4217,-1.4194,-1.4191,-1.4177,-1.4175,-1.4198,-1.4171,-1.4163,-1.4159,-1.4158,-1.415,-1.4154,-1.4155,-1.4192,-1.4144,-1.4145,-1.4146,-1.4147,-1.4276,-1.4278,0,0,0,0,0,0,-1.4199,-1.4197,-1.4217,-1.4217,-1.4186,-1.4179,-1.4177,-1.4185,-1.417,-1.4166,-1.416,-1.4155,-1.4152,-1.4153,-1.4154,-1.4218,-1.4146,-1.4147,-1.4148,-1.4273,-1.4276,-1.4279,0,0,0,0,0,0,-1.4198,-1.4201,-1.4218,-1.4206,-1.4207,-1.4182,-1.4191,-1.4186,-1.4189,-1.4168,-1.4163,-1.4168,-1.4151,-1.4152,-1.4184,-1.4216,-1.4148,-1.4149,-1.427,-1.4274,-1.4277,-1.4345,0,0,0,0,0,0,-1.4198,-1.4201,-1.4221,-1.4206,-1.4208,-1.4247,-1.4193,-1.4187,-1.4192,-1.4186,-1.4175,-1.4171,-1.4149,-1.4182,-1.4186,-1.4217,-1.4151,-1.4267,-1.4272,-1.4276,-1.4339,-1.435,-1.4359,0,0,0,0,0,-1.4197,-1.424,-1.4222,-1.4225,-1.4231,-1.4249,-1.425,-1.4223,-1.4195,-1.4215,-1.4202,-1.4171,-1.4213,-1.4186,-1.419,-1.4222,-1.4265,-1.4271,-1.4276,-1.4335,-1.4348,-1.4359,0,0,0,0,0,0,-1.4258,-1.4237,-1.4217,-1.4257,-1.4255,-1.4239,-1.4263,-1.4238,-1.4244,-1.4238,-1.4206,-1.4204,-1.4242,-1.4235,-1.4206,-1.4275,-1.4234,-1.424,-1.4277,-1.429,-1.43,-1.4299,-1.4152,0,0,0,0,0,-1.4276,-1.4292,-1.4273,-1.431,-1.431,-1.4287,-1.4294,-1.4274,-1.4271,-1.427,-1.426,-1.4259,-1.4272,-1.4281,-1.4291,-1.4339,-1.4336,-1.4364,-1.4374,-1.4382,-1.4388,-1.4414,-1.4426,-1.4297,-1.4296,-1.4296,0,0,-1.4313,-1.4304,-1.4316,-1.4322,-1.4318,-1.4336,-1.4287,-1.4307,-1.4321,-1.4273,-1.4303,-1.4296,-1.4293,-1.4334,-1.4351,-1.433,-1.4423,-1.4389,-1.4396,-1.4397,-1.4421,-1.4433,-1.4444,-1.43,-1.43,-1.4299,0,0,-1.439,-1.4385,-1.4415,-1.4413,-1.4409,-1.4394,-1.4402,-1.439,-1.4383,-1.4413,-1.4379,-1.4395,-1.4418,-1.4417,-1.442,-1.4501,-1.4474,-1.4506,-1.4557,-1.4583,-1.4594,-1.4602,-1.4632,-1.4643,-1.4512,-1.4512,-1.4512,0,-1.4437,-1.4461,-1.4434,-1.4457,-1.4462,-1.4421,-1.4453,-1.4453,-1.4452,-1.4457,-1.4433,-1.4463,-1.4458,-1.4498,-1.4519,-1.4522,-1.4531,-1.4506,-1.4594,-1.4603,-1.4611,-1.4638,-1.4649,-1.4516,-1.4516,-1.4515,-1.4515,0,-1.452,-1.4538,-1.4563,-1.4564,-1.4572,-1.46,-1.4577,-1.4589,-1.457,-1.4558,-1.459,-1.4583,-1.4593,-1.4601,-1.4582,-1.464,-1.4627,-1.46,-1.4557,-1.4628,-1.4653,-1.4663,-1.4522,-1.452,-1.4519,-1.4518,0,0,-1.4631,-1.4619,-1.4629,-1.463,-1.4624,-1.4638,-1.4665,-1.4675,-1.4685,-1.4688,-1.471,-1.4732,-1.4707,-1.4711,-1.4692,-1.4715,-1.4781,-1.4685,-1.4684,-1.4703,-1.4846,-1.4866,-1.4878,-1.4764,-1.4766,-1.4767,-1.4846,0,-1.4704,-1.4748,-1.4726,-1.4773,-1.479,-1.4755,-1.4778,-1.4778,-1.4769,-1.4783,-1.4773,-1.4789,-1.4755,-1.4757,-1.4779,-1.4769,-1.4809,-1.4763,-1.4785,-1.4786,-1.4785,-1.4891,-1.4912,-1.4986,-1.4856,-1.4857,-1.4859,0,-1.4794,-1.4801,-1.4851,-1.4844,-1.485,-1.4872,-1.488,-1.4894,-1.4895,-1.4886,-1.4892,-1.4869,-1.4897,-1.4856,-1.4894,-1.4863,-1.4872,-1.4869,-1.4871,-1.487,-1.4825,-1.4893,-1.5009,-1.502,-1.4874,-1.4873,-1.4872,0,-1.487,-1.4892,-1.4925,-1.4927,-1.492,-1.4936,-1.4934,-1.4933,-1.4941,-1.4949,-1.4954,-1.4966,-1.4971,-1.4982,-1.4963,-1.4935,-1.5004,-1.4962,-1.4998,-1.4999,-1.5012,-1.5011,-1.513,-1.502,-1.502,-1.502,-1.502,0,-1.4953,-1.4985,-1.4959,-1.4979,-1.5014,-1.499,-1.5026,-1.502,-1.5019,-1.5039,-1.5009,-1.5028,-1.5003,-1.502,-1.5006,-1.504,-1.5043,-1.5038,-1.5033,-1.504,-1.504,-1.5043,-1.5037,-1.5023,-1.5022,-1.5022,-1.5021,0,-1.5042,-1.5027,-1.506,-1.5052,-1.5051,-1.5077,-1.507,-1.5089,-1.508,-1.5104,-1.5109,-1.5094,-1.5112,-1.5096,-1.5113,-1.5104,-1.515,-1.5139,-1.5149,-1.5146,-1.5183,-1.518,-1.5306,-1.5322,-1.5203,-1.5205,-1.5206,0,-1.5095,-1.5119,-1.5114,-1.5125,-1.5125,-1.5143,-1.5152,-1.513,-1.5141,-1.5145,-1.5164,-1.518,-1.5192,-1.5224,-1.5215,-1.5229,-1.5218,-1.5262,-1.5219,-1.5226,-1.5218,-1.5216,-1.5219,-1.5269,-1.5271,-1.5272,-1.5273,0,-1.5192,-1.5183,-1.5197,-1.5209,-1.522,-1.5228,-1.5234,-1.5245,-1.5223,-1.5237,-1.5256,-1.5265,-1.5285,-1.5302,-1.5314,-1.5313,-1.529,-1.5287,-1.5296,-1.5301,-1.5306,-1.5304,-1.5171,-1.5283,-1.5282,-1.5281,-1.5281,-1.528,-1.5264,-1.5284,-1.5284,-1.5301,-1.5303,-1.531,-1.5328,-1.5322,-1.5337,-1.5351,-1.5338,-1.5362,-1.5365,-1.5378,-1.5381,-1.54,-1.5382,-1.5395,-1.5398,-1.5401,-1.5406,-1.5305,-1.5402,-1.5402,-1.5401,-1.5401,-1.5401,0,-1.5358,-1.5357,-1.5373,-1.5383,-1.5397,-1.5375,-1.5381,-1.5394,-1.5415,-1.542,-1.5433,-1.5456,-1.5474,-1.5468,-1.5484,-1.55,-1.549,-1.5505,-1.5503,-1.5503,-1.5422,-1.5412,-1.5513,-1.5513,-1.5513,-1.5513,-1.5513,-1.5513,-1.5408,-1.5441,-1.5434,-1.5469,-1.5468,-1.5491,-1.5496,-1.5504,-1.5507,-1.5535,-1.5549,-1.5545,-1.5546,-1.5563,-1.5578,-1.5576,-1.5583,-1.5602,-1.5596,-1.552,-1.5509,-1.5498,-1.5489,-1.5604,-1.5604,-1.5675,-1.5676,-1.5676]},{"header":{"parameterUnit":"m.s-1","parameterCategory":1,"la1":30.2991,"la2":30.254,"lo1":-89.0895,"lo2":-89.0444,"dy":0.0017,"dx":0.0017,"nx":28,"ny":28,"refTime":"2024-02-15T09:00:00:Z","depth":0,"parameterNumber":3,"parameterNumberName":"V-component_of_WINDS"},"data":[0,0,0,0,0,0,0,0,0,0,0,0,0,0,0,0,0,0,0,0,0,0,0,0,0,0,0,0,0,0,0,0,0,0,0,0,0,0,0,0,0,0,0,0,0,0,0,0,0,0,0,0,0,0,0,0,0,0,1.5118,1.5118,0,1.5144,1.5144,1.5144,1.522,1.5222,1.5223,1.5225,1.5246,1.5245,1.5244,0,0,0,0,0,0,0,0,0,0,0,0,0,1.5128,1.5128,1.5118,1.5118,1.5118,1.5144,1.5144,1.5144,1.522,1.5222,1.5224,1.5226,1.5246,1.5245,1.5244,0,0,0,0,0,0,0,0,0,0,0,0,0,1.5136,1.5128,1.5117,1.5159,1.5163,1.5144,1.5144,1.5144,1.5219,1.5222,1.5224,1.5227,1.5246,1.5245,1.5243,1.5184,0,0,1.5239,1.5238,0,0,0,0,0,0,0,0,1.5135,1.5135,1.5153,1.5156,1.5161,1.5181,1.5156,1.5158,1.5219,1.5198,1.5225,1.5228,1.5222,1.5222,1.5222,1.5185,1.5186,1.5239,1.5238,1.5237,1.5237,0,0,0,0,0,0,0,1.5135,1.5135,1.5128,1.5153,1.5158,1.5175,1.5179,1.5156,1.5195,1.52,1.5205,1.5208,1.5224,1.5223,1.5223,1.5186,1.5239,1.5237,1.5236,1.5236,1.5103,1.51,0,0,0,0,0,0,1.5129,1.5134,1.5127,1.5129,1.5154,1.5173,1.5177,1.5172,1.5196,1.5202,1.5205,1.5211,1.5224,1.5224,1.5224,1.5156,1.5237,1.5236,1.5235,1.5105,1.5102,1.5099,0,0,0,0,0,0,1.5129,1.5128,1.5126,1.5133,1.5134,1.517,1.5164,1.5171,1.517,1.52,1.5207,1.5197,1.5226,1.5226,1.5194,1.5157,1.5235,1.5234,1.5108,1.5104,1.5101,1.5018,0,0,0,0,0,0,1.5129,1.5127,1.5106,1.5132,1.5133,1.5096,1.5161,1.517,1.5168,1.5175,1.5194,1.5199,1.5228,1.5196,1.5192,1.5157,1.5233,1.5112,1.5106,1.5102,1.5025,1.5012,1.5002,0,0,0,0,0,1.5129,1.508,1.5104,1.5103,1.5108,1.5094,1.5095,1.5131,1.5165,1.5143,1.5162,1.5199,1.5163,1.5192,1.5189,1.5152,1.5114,1.5108,1.5102,1.503,1.5015,1.5002,0,0,0,0,0,0,1.5047,1.5084,1.5111,1.507,1.5079,1.5107,1.5081,1.5114,1.5111,1.5118,1.5161,1.5164,1.5126,1.5136,1.5168,1.5096,1.5144,1.5137,1.509,1.5076,1.5065,1.5062,1.5231,0,0,0,0,0,1.5024,1.5012,1.5045,1.5005,1.5009,1.5044,1.5039,1.5066,1.5076,1.5079,1.5097,1.5103,1.5094,1.5086,1.5079,1.5028,1.5032,1.5001,1.4989,1.498,1.4972,1.4946,1.4932,1.508,1.508,1.508,0,0,1.4976,1.4996,1.4985,1.4989,1.4999,1.4984,1.5046,1.5027,1.5016,1.5076,1.5047,1.506,1.507,1.5029,1.5011,1.5036,1.4933,1.4972,1.4964,1.4962,1.4938,1.4924,1.4911,1.5076,1.5076,1.5077,0,0,1.4882,1.4896,1.4864,1.4873,1.4889,1.4913,1.4905,1.4929,1.4941,1.4913,1.4958,1.4945,1.4927,1.4932,1.4933,1.4842,1.4875,1.4839,1.4778,1.4751,1.4739,1.4729,1.4695,1.4683,1.4832,1.4832,1.4832,0,1.482,1.48,1.4843,1.4822,1.4822,1.4879,1.4846,1.4853,1.4863,1.4861,1.489,1.487,1.4881,1.4841,1.4819,1.4818,1.4809,1.4835,1.4738,1.4728,1.4719,1.4688,1.4675,1.4827,1.4828,1.4828,1.4829,0,1.4723,1.4709,1.4681,1.4693,1.469,1.4663,1.47,1.4692,1.472,1.4741,1.4712,1.4728,1.4724,1.4718,1.4744,1.4681,1.4696,1.4731,1.478,1.47,1.4671,1.4659,1.482,1.4822,1.4823,1.4825,0,0,1.4574,1.4612,1.46,1.4607,1.4628,1.4617,1.4593,1.4592,1.4584,1.459,1.457,1.4555,1.4587,1.4588,1.4615,1.4592,1.4518,1.463,1.4631,1.4607,1.4449,1.4421,1.4407,1.4542,1.454,1.4538,1.4448,0,1.4483,1.4445,1.4484,1.4437,1.4424,1.4479,1.4457,1.4467,1.4487,1.4477,1.4498,1.4486,1.4531,1.4532,1.4512,1.4531,1.4487,1.4539,1.4521,1.4519,1.4514,1.4392,1.4362,1.4276,1.4437,1.4435,1.4433,0,1.4371,1.4375,1.4327,1.4353,1.4349,1.4329,1.4332,1.4323,1.4335,1.4351,1.4353,1.4387,1.4364,1.4414,1.4381,1.4416,1.4411,1.442,1.4418,1.4415,1.447,1.4384,1.425,1.4236,1.4416,1.4418,1.4419,0,1.4266,1.4258,1.4229,1.4233,1.4262,1.4247,1.4258,1.4274,1.4271,1.4273,1.4272,1.427,1.4269,1.4266,1.4299,1.4333,1.4262,1.4315,1.4272,1.4271,1.4253,1.4253,1.4114,1.4253,1.4253,1.4253,1.4254,0,1.4159,1.4127,1.4182,1.4164,1.413,1.4174,1.4139,1.4156,1.417,1.4154,1.4202,1.4186,1.4232,1.4221,1.4246,1.4215,1.4214,1.4225,1.4232,1.4219,1.4218,1.4215,1.4221,1.425,1.4251,1.4251,1.4252,0,1.4034,1.407,1.4041,1.4073,1.408,1.4053,1.408,1.4063,1.4087,1.4067,1.4065,1.4101,1.409,1.4124,1.4118,1.4136,1.4089,1.4107,1.4085,1.409,1.4045,1.4048,1.3897,1.3879,1.4031,1.403,1.4029,0,1.3962,1.394,1.3969,1.3964,1.3973,1.3963,1.3962,1.4005,1.4001,1.4014,1.3996,1.399,1.3987,1.3968,1.3992,1.3988,1.4005,1.3953,1.4004,1.3993,1.4002,1.4002,1.4,1.3941,1.3939,1.3937,1.3936,0,1.3831,1.385,1.3847,1.385,1.3847,1.385,1.3857,1.3849,1.3896,1.3889,1.388,1.3878,1.3874,1.3866,1.3868,1.3878,1.3914,1.392,1.391,1.3896,1.3884,1.3888,1.4054,1.3923,1.3924,1.3925,1.3926,1.3926,1.373,1.3712,1.3731,1.3725,1.3735,1.3741,1.3727,1.375,1.3744,1.3745,1.3771,1.3757,1.3771,1.3777,1.3784,1.3772,1.3797,1.3782,1.3778,1.3773,1.3765,1.3888,1.3773,1.3774,1.3774,1.3774,1.3775,0,1.3599,1.3615,1.361,1.3619,1.3614,1.3652,1.3662,1.3655,1.3642,1.3653,1.365,1.364,1.3634,1.3659,1.3656,1.3642,1.3658,1.3639,1.3639,1.3641,1.3744,1.3753,1.3626,1.3626,1.3626,1.3626,1.3626,1.3626,1.3531,1.3503,1.3525,1.3502,1.3518,1.3506,1.3508,1.3513,1.3522,1.3509,1.3505,1.3523,1.3539,1.3538,1.3533,1.3541,1.3537,1.3512,1.3524,1.362,1.3634,1.3648,1.3656,1.3511,1.3511,1.3423,1.3422,1.3421]}]]